National Weather Service Raw Text Product

Displaying AFOS PIL: RWRIA Received: 2018-06-14 02:00 UTC


924 
ASUS43 KDMX 140206
RWRIA 

WEATHER ROUNDUP FOR IOWA
NATIONAL WEATHER SERVICE DES MOINES IA
900 PM CDT WED JUN 13 2018

NOTE: "FAIR" INDICATES FEW OR NO CLOUDS BELOW 12,000 FEET WITH NO
SIGNIFICANT WEATHER AND/OR OBSTRUCTIONS TO VISIBILITY.

* - THESE STATIONS ARE NOT NWS STATIONS...THUS NOT UNDER NWS
QUALITY CONTROL.  THEY ALSO DO NOT REPORT WEATHER SUCH 
AS PRECIPITATION OR FOG.  

IAZ001>003-012>014-020>022-031>034-043>046-140300-
   NORTHWEST IOWA
  
CITY           SKY/WX    TMP DP  RH WIND       PRES   REMARKS
CARROLL *      MOCLDY    68  59  73 SE13      29.95F                  
CHEROKEE *     CLOUDY    68  55  62 S7        29.94R                  
DENISON *      PTCLDY    70  55  60 S9G17     29.99R                  
LE MARS *      CLOUDY   N/A N/A N/A S8        29.94R                  
ORANGE CITY *  CLOUDY    66  55  68 S9        29.94R                  
SHELDON *      CLOUDY    66  55  68 NE9       29.92R                  
SIOUX CITY     CLOUDY    65  55  70 S9        29.93F                  
SPENCER        CLOUDY    66  54  65 E8        29.93S                  
STORM LAKE *   MOCLDY    66  55  68 S10G16    29.95R                  
$$
 
IAZ055>058-069>071-079>083-090>094-140300-
   SOUTHWEST IOWA
  
CITY           SKY/WX    TMP DP  RH WIND       PRES   REMARKS
ATLANTIC *     CLOUDY    72  57  60 E9        30.01F                  
AUDUBON *      CLOUDY    68  57  68 SE6       30.02F                  
CLARINDA *     CLEAR     72  59  64 CALM      30.02S                  
COUNCIL BLFS * PTCLDY    72  59  64 SE9       29.99R                  
CRESTON *      CLEAR     68  61  77 NE7       30.04F                  
HARLAN  *      PTCLDY    70  57  64 E7G13     30.03S                  
LAMONI         CLEAR     69  61  75 E3        30.02R                  
RED OAK *      MOCLDY    72  59  64 MISG      30.01R                  
SHENANDOAH *   CLOUDY    73  61  64 E5        29.99S                  
$$
 
IAZ047>049-059>061-072>074-084-140300-
   CENTRAL IOWA
  
CITY           SKY/WX    TMP DP  RH WIND       PRES   REMARKS
AMES           CLOUDY    73  57  57 NE9       29.99F                  
ANKENY *       CLOUDY    70  61  73 CALM      30.04R                  
BOONE *        CLOUDY    70  61  73 NE5       30.02F                  
CHARITON *     PTCLDY    70  59  68 N5        30.03R                  
DES MOINES     CLOUDY    76  53  44 VRB3      30.02R                  
GRINNELL*      CLOUDY    71  54  55 CALM      30.04S                  
KNOXVILLE *    CLOUDY    73  54  49 CALM      30.01R                  
MARSHALLTOWN   PTCLDY    70  55  59 W6        30.03R                  
NEWTON *       CLOUDY    72  57  60 NW3       30.03R                  
PELLA *        CLOUDY    70  54  56 CALM      30.03R                  
PERRY *        FAIR      68  64  87 E3        30.02F                  
$$
 
IAZ004>006-015-016-023>025-035-036-140300-
   NORTH CENTRAL IOWA
  
CITY           SKY/WX    TMP DP  RH WIND       PRES   REMARKS
ALGONA *       CLOUDY    70  50  49 CALM      29.98F                  
CLARION *      CLOUDY    70  52  52 SE10G17   29.95F HAZE             
ESTHERVILLE    LGT RAIN  68  49  50 SE13      29.95F                  
FORT DODGE *   LGT RAIN  66  54  65 SE9       29.92F                  
MASON CITY     CLOUDY    69  59  70 SE8       30.02F                  
FOREST CITY *  LGT RAIN  66  55  68 SE7       29.98F                  
WEBSTER CITY * LGT RAIN  68  57  68 SE13      29.95F                  
IOWA FALLS *   FAIR      71  53  53 SW6       30.06R                  
$$

IAZ007>011-017>019-026>030-037>042-050>054-066-140300-
   NORTHEAST IOWA
  
CITY           SKY/WX    TMP DP  RH WIND       PRES   REMARKS
CEDAR RAPIDS   FAIR      70  54  56 CALM      30.02R                  
CHARLES CITY * FAIR      70  57  64 SW3       30.04R                  
CLINTON *        N/A     68  59  73 N3        30.04R                  
DECORAH *      FAIR      70  54  56 CALM      30.01S                  
DUBUQUE        FAIR      66  54  65 CALM      30.03S                  
MONTICELLO *   FAIR      68  61  77 CALM      30.02S                  
OELWEIN *      FAIR      68  61  77 CALM      30.03S                  
WATERLOO       FAIR      66  57  72 CALM      30.02R                  
$$
 
IAZ064-065-067-068-078-140300-
   EAST CENTRAL IOWA
  
CITY           SKY/WX    TMP DP  RH WIND       PRES   REMARKS
DAVENPORT      FAIR      67  58  72 CALM      30.04S                  
IOWA CITY      FAIR      71  57  61 CALM      30.03R                  
MUSCATINE *      N/A    N/A N/A N/A MISG        N/A                   
QUAD CITIES    FAIR      65  58  78 SE3       30.02R                  
$$
 
IAZ062-063-075>077-085>089-095>099-140300-
   SOUTHEAST IOWA
  
CITY           SKY/WX    TMP DP  RH WIND       PRES   REMARKS
BURLINGTON     CLOUDY    71  50  47 CALM      30.02S                  
FAIRFIELD *    PTCLDY    68  55  64 NE5       30.02R                  
FORT MADISON * CLOUDY    70  55  60 CALM      30.03S                  
KEOKUK *       PTCLDY    70  57  64 CALM      30.01F                  
OSKALOOSA *    FAIR      70  58  65 NE5       30.03S                  
CENTERVILLE *    N/A     68  57  68 CALM      30.03R                  
OTTUMWA        CLOUDY    72  54  53 NE5       30.01S                  
WASHINGTON *   CLEAR     72  57  60 NE6       30.03R                  
$$

ABBREVIATIONS USED IN REMARKS
   TC - TEMPERATURES IN CELSIUS
  WCI - WIND CHILL INDEX
   HX - HEAT INDEX
  VSB - VISIBILITY  
$$

  

473 
ASUS43 KDMX 140201
RWRIA 

WEATHER ROUNDUP FOR IOWA
NATIONAL WEATHER SERVICE DES MOINES IA
900 PM CDT WED JUN 13 2018

NOTE: "FAIR" INDICATES FEW OR NO CLOUDS BELOW 12,000 FEET WITH NO
SIGNIFICANT WEATHER AND/OR OBSTRUCTIONS TO VISIBILITY.

* - THESE STATIONS ARE NOT NWS STATIONS...THUS NOT UNDER NWS
QUALITY CONTROL.  THEY ALSO DO NOT REPORT WEATHER SUCH 
AS PRECIPITATION OR FOG.  

IAZ001>003-012>014-020>022-031>034-043>046-140300-
   NORTHWEST IOWA
  
CITY           SKY/WX    TMP DP  RH WIND       PRES   REMARKS
CARROLL *      MOCLDY    68  59  73 SE13      29.95F                  
CHEROKEE *     CLOUDY    68  55  62 S7        29.94R                  
DENISON *      PTCLDY    70  55  60 S9G17     29.99R                  
LE MARS *      CLOUDY   N/A N/A N/A S8        29.94R                  
ORANGE CITY *  CLOUDY    66  55  68 S9        29.94R                  
SHELDON *      CLOUDY    66  55  68 NE9       29.92R                  
SIOUX CITY     CLOUDY    65  55  70 S9        29.93F                  
SPENCER        CLOUDY    66  54  65 E8        29.93S                  
STORM LAKE *   MOCLDY    66  55  68 S10G16    29.95R                  
$$
 
IAZ055>058-069>071-079>083-090>094-140300-
   SOUTHWEST IOWA
  
CITY           SKY/WX    TMP DP  RH WIND       PRES   REMARKS
ATLANTIC *     CLOUDY    72  57  60 E9        30.01F                  
AUDUBON *      CLOUDY    68  57  68 SE6       30.02F                  
CLARINDA *     CLEAR     72  59  64 CALM      30.02S                  
COUNCIL BLFS * PTCLDY    72  59  64 SE9       29.99R                  
CRESTON *      CLEAR     68  61  77 NE7       30.04F                  
HARLAN  *      PTCLDY    70  57  64 E7G13     30.03S                  
LAMONI         CLEAR     69  61  75 E3        30.02R                  
RED OAK *      MOCLDY    72  59  64 MISG      30.01R                  
SHENANDOAH *   CLOUDY    73  61  64 E5        29.99S                  
$$
 
IAZ047>049-059>061-072>074-084-140300-
   CENTRAL IOWA
  
CITY           SKY/WX    TMP DP  RH WIND       PRES   REMARKS
AMES           CLOUDY    73  57  57 NE9       29.99F                  
ANKENY *       CLOUDY    70  61  73 CALM      30.04R                  
BOONE *        CLOUDY    70  61  73 NE5       30.02F                  
CHARITON *     PTCLDY    70  59  68 N5        30.03R                  
DES MOINES     CLOUDY    76  53  44 VRB3      30.02R                  
GRINNELL*      CLOUDY    71  54  55 CALM      30.04S                  
KNOXVILLE *    CLOUDY    73  54  49 CALM      30.01R                  
MARSHALLTOWN   PTCLDY    70  55  59 W6        30.03R                  
NEWTON *       CLOUDY    72  57  60 NW3       30.03R                  
PELLA *        CLOUDY    70  54  56 CALM      30.03R                  
$$
 
IAZ004>006-015-016-023>025-035-036-140300-
   NORTH CENTRAL IOWA
  
CITY           SKY/WX    TMP DP  RH WIND       PRES   REMARKS
ALGONA *       CLOUDY    70  50  49 CALM      29.98F                  
CLARION *      CLOUDY    70  52  52 SE10G17   29.95F HAZE             
ESTHERVILLE    LGT RAIN  68  49  50 SE13      29.95F                  
FORT DODGE *   LGT RAIN  66  54  65 SE9       29.92F                  
MASON CITY     CLOUDY    69  59  70 SE8       30.02F                  
FOREST CITY *  LGT RAIN  66  55  68 SE7       29.98F                  
IOWA FALLS *   FAIR      71  53  53 SW6       30.06R                  
$$

IAZ007>011-017>019-026>030-037>042-050>054-066-140300-
   NORTHEAST IOWA
  
CITY           SKY/WX    TMP DP  RH WIND       PRES   REMARKS
CEDAR RAPIDS   FAIR      70  54  56 CALM      30.02R                  
CHARLES CITY * FAIR      70  57  64 SW3       30.04R                  
CLINTON *        N/A     68  59  73 N3        30.04R                  
DECORAH *      FAIR      70  54  56 CALM      30.01S                  
DUBUQUE        FAIR      66  54  65 CALM      30.03S                  
MONTICELLO *   FAIR      68  61  77 CALM      30.02S                  
OELWEIN *      FAIR      68  61  77 CALM      30.03S                  
WATERLOO       FAIR      66  57  72 CALM      30.02R                  
$$
 
IAZ064-065-067-068-078-140300-
   EAST CENTRAL IOWA
  
CITY           SKY/WX    TMP DP  RH WIND       PRES   REMARKS
DAVENPORT      FAIR      67  58  72 CALM      30.04S                  
IOWA CITY      FAIR      71  57  61 CALM      30.03R                  
MUSCATINE *      N/A    N/A N/A N/A MISG        N/A                   
QUAD CITIES    FAIR      65  58  78 SE3       30.02R                  
$$
 
IAZ062-063-075>077-085>089-095>099-140300-
   SOUTHEAST IOWA
  
CITY           SKY/WX    TMP DP  RH WIND       PRES   REMARKS
BURLINGTON     CLOUDY    71  50  47 CALM      30.02S                  
FAIRFIELD *    PTCLDY    68  55  64 NE5       30.02R                  
FORT MADISON * CLOUDY    70  55  60 CALM      30.03S                  
KEOKUK *       PTCLDY    70  57  64 CALM      30.01F                  
OSKALOOSA *    FAIR      70  58  65 NE5       30.03S                  
CENTERVILLE *    N/A     68  57  68 CALM      30.03R                  
OTTUMWA        CLOUDY    72  54  53 NE5       30.01S                  
WASHINGTON *   CLEAR     72  57  60 NE6       30.03R                  
$$

ABBREVIATIONS USED IN REMARKS
   TC - TEMPERATURES IN CELSIUS
  WCI - WIND CHILL INDEX
   HX - HEAT INDEX
  VSB - VISIBILITY  
$$